This is the latest recevied weather packets stored in our database for station/object Winterlng. If no packets are shown the sender has not sent any weather packets the latest 10 day(s).
| Time | Temp. | Humidity | Pressure | Rain* | Wind** | Luminosity | Snow |
|---|---|---|---|---|---|---|---|
| 1777626132 | 13.33° C | 36% | 0 hPa | 0 mm | - | - | - |
| 1777624331 | 13.33° C | 34% | 0 hPa | 0 mm | - | - | - |
| 1777622532 | 12.22° C | 33% | 0 hPa | 0 mm | - | - | - |
| 1777620733 | 11.11° C | 36% | 0 hPa | 0 mm | - | - | - |
| 1777618930 | 9.44° C | 39% | 0 hPa | 0 mm | - | - | - |
| 1777617131 | 8.89° C | 41% | 0 hPa | 0 mm | - | - | - |
| 1777615333 | 7.22° C | 45% | 0 hPa | 0 mm | - | - | - |
| 1777613531 | 7.22° C | 44% | 0 hPa | 0 mm | - | - | - |
| 1777611731 | 7.78° C | 41% | 0 hPa | 0 mm | - | - | - |
| 1777609931 | 5° C | 46% | 0 hPa | 0 mm | - | - | - |
| 1777608131 | 4.44° C | 47% | 0 hPa | 0 mm | - | - | - |
| 1777606332 | 5° C | 44% | 0 hPa | 0 mm | - | - | - |
| 1777604532 | 5.56° C | 44% | 0 hPa | 0 mm | - | - | - |
| 1777602733 | 5.56° C | 43% | 0 hPa | 0 mm | - | - | - |
| 1777600931 | 5.56° C | 44% | 0 hPa | 0 mm | - | - | - |
| 1777599131 | 6.11° C | 43% | 0 hPa | 0 mm | - | - | - |
| 1777597332 | 6.11° C | 43% | 0 hPa | 0 mm | - | - | - |
| 1777595529 | 6.67° C | 42% | 0 hPa | 0 mm | - | - | - |
| 1777593730 | 6.67° C | 40% | 0 hPa | 0 mm | - | - | - |
| 1777591929 | 7.22° C | 39% | 0 hPa | 0 mm | - | - | - |
| 1777590129 | 7.22° C | 36% | 0 hPa | 0 mm | - | - | - |
| 1777588330 | 7.78° C | 33% | 0 hPa | 0 mm | - | - | - |
| 1777586529 | 8.33° C | 34% | 0 hPa | 0 mm | - | - | - |
| 1777584729 | 8.33° C | 36% | 0 hPa | 0 mm | - | - | - |
| 1777582929 | 8.33° C | 37% | 0 hPa | 0 mm | - | - | - |
* Rain since midnight (hover to see other rain measurements)
** Current wind speed in m/s (hover to see current wind gust speed)